Regional & State Weather Roundups


722 
ASPQ40 PGUM 151712
RWRPQ 
WEATHER ROUNDUP FOR THE MARIANAS AND MICRONESIA
NATIONAL WEATHER SERVICE TIYAN GU
300 AM CHST SAT DEC 16 2017
GUZ001>004-151800-
MARIANA ISLANDS-
  
CITY           SKY/WX    TMP DP  RH WIND       PRES   REMARKS
GUAM AIRPORT   PTCLDY    81  77  89 NE8       29.81F                  
ANDERSEN AFB   DRIZZLE   79  75  89 NE15      29.81F                  
ROTA AIRPORT   NOT AVBL                                               
TINIAN AP      NOT AVBL                                               
SAIPAN AP      MOCLDY    79  75  89 E10       29.82F                  
$$
PMZ161-151800-
REPUBLIC OF PALAU-
  
CITY           SKY/WX    TMP DP  RH WIND       PRES   REMARKS
KOROR AP       CLOUDY    81  75  83 SW9       29.75F                  
KOROR WSO      CLOUDY    81  75  83 SW12      29.76F                  
$$
PMZ171>174-151800-
FEDERATED STATES OF MICRONESIA-
  
CITY           SKY/WX    TMP DP  RH WIND       PRES   REMARKS
YAP AIRPORT    NOT AVBL                                               
CHUUK AP       MOCLDY    84  81  89 SE12      29.70F HX  98           
POHNPEI AP     NOT AVBL                                               
POHNPEI WSO    PTCLDY    81  75  83 E8        29.78S                  
KOSRAE AP      NOT AVBL                                               
$$
PMZ181-151800-
REPUBLIC OF THE MARSHALL ISLANDS-
  
CITY           SKY/WX    TMP DP  RH WIND       PRES   REMARKS
KWAJALEIN AP   CLEAR     81  75  83 NE13      29.79R                  
MAJURO AP      NOT AVBL                                               
MAJURO WSO     MOCLDY    82  73  74 E10       29.76R                  
$$
  

724 
ASGM40 PGUM 151712
RWRGUM
WEATHER ROUNDUP FOR THE MARIANAS
NATIONAL WEATHER SERVICE TIYAN GU
300 AM CHST SAT DEC 16 2017
GUZ001>004-151800-
MARIANA ISLANDS-
  
CITY           SKY/WX    TMP DP  RH WIND       PRES   REMARKS
GUAM AIRPORT   PTCLDY    81  77  89 NE8       29.81F                  
ANDERSEN AFB   DRIZZLE   79  75  89 NE15      29.81F                  
ROTA AIRPORT   NOT AVBL                                               
TINIAN AP      NOT AVBL                                               
SAIPAN AP      MOCLDY    79  75  89 E10       29.82F                  
$$